Franklin, NC

9:18 AM EST on February 13, 2016 (GMT -0500)
Franklin

Weather History for K1A5 - January, 2005

Change the Weather History Date:

Sunday, January 23, 2005

  Actual Average (KTOC) Record (KTOC)
Temperature  
Mean Temperature 24 °F -  
Max Temperature 32 °F 52 °F 46 °F (2015)
Min Temperature 17 °F 32 °F 21 °F (2014)
Degree Days  
Heating Degree Days 40    
Moisture  
Dew Point 5 °F    
Average Humidity 49    
Maximum Humidity 74    
Minimum Humidity 23    
Precipitation  
Precipitation 0.00 in - - ()
Sea Level Pressure  
Sea Level Pressure 30.12 in    
Wind  
Wind Speed 10 mph (NW)    
Max Wind Speed 18 mph    
Max Gust Speed 28 mph    
Visibility 9 miles    
Events Snow    
Averages and records for this station are not official NWS values.
T = Trace of Precipitation, MM = Missing Value Source: NWS Daily Summary

Daily Weather History Graph

Daily Weather History Graph

Search for Another Location

Airport or City:

Trip Planner

Search our weather history database for the weather conditions in past years. The results will help you decide how hot, cold, wet, or windy it might be!

Date:

Astronomy

Jan. 23, 2005 Rise Set
Actual Time 7:38 AM EST 5:53 PM EST
Civil Twilight 7:11 AM EST 6:20 PM EST
Nautical Twilight 6:40 AM EST 6:51 PM EST
Astronomical Twilight 6:10 AM EST 7:21 PM EST
Moon 4:12 PM EST (1/23) 6:44 AM EST (1/23)
Length of Visible Light 11h 08m
Length of Day
10h 14m
Waxing Gibbous, 97% of the Moon is Illuminated
Jan 23
Waxing Gibbous
Jan 25
Full
Feb 2
Last Quarter
Feb 8
New
Feb 15
First Quarter

Hourly Weather History & Observations

Time (EST) Temp. Windchill Dew Point Humidity Pressure Visibility Wind Dir Wind Speed Gust Speed Precip Events Conditions
12:00 AM 21.2 °F 9.5 °F 12.2 °F 68% 29.92 in 5.0 mi WNW 11.5 mph 27.6 mph N/A Snow Light Snow
12:20 AM 21.2 °F 7.3 °F 12.2 °F 68% 29.93 in 4.0 mi NW 16.1 mph 25.3 mph N/A Snow Light Snow
12:40 AM 21.2 °F 6.4 °F 12.2 °F 68% 29.93 in 2.0 mi NW 18.4 mph 26.5 mph N/A Snow Light Snow
1:00 AM 19.4 °F 5.5 °F 12.2 °F 74% 29.94 in 2.0 mi WNW 15.0 mph 23.0 mph N/A Snow Light Snow
1:20 AM 19.4 °F 9.5 °F 12.2 °F 74% 29.96 in 2.5 mi WNW 8.1 mph 18.4 mph N/A Snow Light Snow
1:40 AM 19.4 °F 8.6 °F 12.2 °F 74% 29.97 in 1.8 mi WNW 9.2 mph 25.3 mph N/A Snow Light Snow
2:00 AM 19.4 °F 9.5 °F 10.4 °F 68% 29.97 in 3.0 mi West 8.1 mph 21.9 mph N/A Snow Light Snow
2:20 AM 19.4 °F 6.6 °F 5.0 °F 54% 29.98 in 7.0 mi NW 12.7 mph 25.3 mph N/A Snow Light Snow
2:40 AM 17.6 °F 6.4 °F 6.8 °F 63% 29.98 in 7.0 mi WNW 9.2 mph 23.0 mph N/A Snow Light Snow
3:00 AM 17.6 °F 5.0 °F 8.6 °F 68% 29.99 in 4.0 mi WNW 11.5 mph 26.5 mph N/A Snow Light Snow
3:20 AM 17.6 °F 2.2 °F 6.8 °F 63% 29.99 in 7.0 mi North 17.3 mph 21.9 mph N/A Snow Light Snow
4:00 AM 17.6 °F 9.3 °F 8.6 °F 68% 30.00 in 4.0 mi WNW 5.8 mph 16.1 mph N/A Snow Light Snow
4:20 AM 17.6 °F 10.7 °F 8.6 °F 68% 30.00 in 5.0 mi NNW 4.6 mph 18.4 mph N/A Snow Light Snow
4:40 AM 17.6 °F 6.4 °F 6.8 °F 63% 30.01 in 7.0 mi NW 9.2 mph 18.4 mph N/A Snow Light Snow
5:00 AM 17.6 °F 10.7 °F 5.0 °F 58% 30.01 in 7.0 mi NW 4.6 mph 17.3 mph N/A Snow Light Snow
5:20 AM 17.6 °F 8.2 °F 5.0 °F 58% 30.01 in 10.0 mi North 6.9 mph - N/A   Overcast
5:40 AM 17.6 °F 9.3 °F 5.0 °F 58% 30.01 in 10.0 mi NW 5.8 mph - N/A   Overcast
6:00 AM 17.6 °F 7.3 °F 5.0 °F 58% 30.02 in 10.0 mi North 8.1 mph - N/A   Overcast
6:40 AM 17.6 °F 5.0 °F 6.8 °F 63% 30.03 in 7.0 mi NNE 11.5 mph - N/A   Overcast
7:00 AM 17.6 °F 12.3 °F 5.0 °F 58% 30.03 in 10.0 mi ESE 3.5 mph - N/A   Overcast
7:40 AM 17.6 °F 10.7 °F 5.0 °F 58% 30.05 in 10.0 mi NNW 4.6 mph - N/A   Scattered Clouds
8:00 AM 17.6 °F 8.2 °F 5.0 °F 58% 30.06 in 10.0 mi WNW 6.9 mph - N/A   Scattered Clouds
8:20 AM 17.6 °F 6.4 °F 5.0 °F 58% 30.07 in 10.0 mi North 9.2 mph 20.7 mph N/A   Scattered Clouds
8:40 AM 17.6 °F 5.0 °F 6.8 °F 63% 30.08 in 10.0 mi NNW 11.5 mph 20.7 mph N/A   Scattered Clouds
9:00 AM 19.4 °F 10.4 °F 6.8 °F 58% 30.09 in 10.0 mi NNW 6.9 mph - N/A   Scattered Clouds
9:40 AM 19.4 °F 7.9 °F 5.0 °F 54% 30.12 in 10.0 mi WNW 10.4 mph 24.2 mph N/A   Clear
10:00 AM 21.2 °F 8.3 °F 5.0 °F 50% 30.13 in 10.0 mi WNW 13.8 mph 24.2 mph N/A   Clear
10:40 AM 21.2 °F 10.1 °F 5.0 °F 50% 30.14 in 10.0 mi West 10.4 mph 23.0 mph N/A   Clear
11:00 AM 23.0 °F 11.7 °F 5.0 °F 46% 30.16 in 10.0 mi WNW 11.5 mph 21.9 mph N/A   Clear
11:20 AM 23.0 °F 10.1 °F 5.0 °F 46% 30.16 in 10.0 mi WNW 15.0 mph 20.7 mph N/A   Clear
11:40 AM 23.0 °F 11.1 °F 5.0 °F 46% 30.16 in 10.0 mi West 12.7 mph 23.0 mph N/A   Clear
12:00 PM 24.8 °F 13.4 °F 5.0 °F 43% 30.15 in 10.0 mi WNW 12.7 mph 23.0 mph N/A   Clear
12:20 PM 26.6 °F 15.2 °F 5.0 °F 40% 30.16 in 10.0 mi WNW 13.8 mph 25.3 mph N/A   Clear
12:40 PM 26.6 °F 15.2 °F 5.0 °F 40% 30.15 in 10.0 mi NW 13.8 mph 23.0 mph N/A   Clear
1:00 PM 28.4 °F 17.0 °F 5.0 °F 37% 30.14 in 10.0 mi WNW 15.0 mph 21.9 mph N/A   Clear
1:20 PM 28.4 °F 17.5 °F 3.2 °F 34% 30.14 in 10.0 mi WNW 13.8 mph 25.3 mph N/A   Clear
1:40 PM 28.4 °F 18.0 °F 3.2 °F 34% 30.15 in 10.0 mi WNW 12.7 mph 24.2 mph N/A   Clear
2:00 PM 28.4 °F 18.5 °F 1.4 °F 31% 30.14 in 10.0 mi WNW 11.5 mph 23.0 mph N/A   Clear
2:20 PM 30.2 °F 20.8 °F 3.2 °F 32% 30.14 in 10.0 mi WNW 11.5 mph 20.7 mph N/A   Clear
3:00 PM 30.2 °F 20.8 °F -0.4 °F 27% 30.14 in 10.0 mi WNW 11.5 mph 19.6 mph N/A   Clear
3:20 PM 30.2 °F 19.3 °F -0.4 °F 27% 30.16 in 10.0 mi West 15.0 mph 20.7 mph N/A   Clear
3:40 PM 32.0 °F 23.6 °F -0.4 °F 25% 30.18 in 10.0 mi WNW 10.4 mph 20.7 mph N/A   Clear
4:00 PM 30.2 °F 20.8 °F -2.2 °F 25% 30.18 in 10.0 mi WNW 11.5 mph 17.3 mph N/A   Clear
4:20 PM 30.2 °F 21.3 °F -4.0 °F 23% 30.20 in 10.0 mi WNW 10.4 mph 20.7 mph N/A   Clear
4:40 PM 30.2 °F 20.2 °F -2.2 °F 25% 30.21 in 10.0 mi NW 12.7 mph 18.4 mph N/A   Clear
5:00 PM 28.4 °F 17.5 °F -2.2 °F 27% 30.21 in 10.0 mi NW 13.8 mph 23.0 mph N/A   Clear
5:20 PM 28.4 °F 18.0 °F -2.2 °F 27% 30.22 in 10.0 mi WNW 12.7 mph 18.4 mph N/A   Clear
6:00 PM 26.6 °F 19.1 °F -0.4 °F 31% 30.23 in 10.0 mi NW 6.9 mph 17.3 mph N/A   Clear
6:20 PM 24.8 °F 13.4 °F -0.4 °F 34% 30.25 in 10.0 mi West 12.7 mph 18.4 mph N/A   Clear
6:40 PM 24.8 °F 17.9 °F -0.4 °F 34% 30.25 in 10.0 mi West 5.8 mph 18.4 mph N/A   Clear
7:00 PM 23.0 °F 13.1 °F 1.4 °F 39% 30.26 in 10.0 mi NW 9.2 mph - N/A   Clear
7:20 PM 23.0 °F 13.1 °F 1.4 °F 39% 30.26 in 10.0 mi NW 9.2 mph - N/A   Clear
7:40 PM 23.0 °F 13.1 °F 1.4 °F 39% 30.27 in 10.0 mi NW 9.2 mph - N/A   Clear
8:00 PM 23.0 °F 18.4 °F 1.4 °F 39% 30.27 in 10.0 mi NNW 3.5 mph - N/A   Clear
8:20 PM 21.2 °F - 3.2 °F 46% 30.28 in 10.0 mi Calm Calm - N/A   Clear
8:40 PM 23.0 °F - 1.4 °F 39% 30.29 in 10.0 mi Calm Calm - N/A   Clear
9:00 PM 21.2 °F - 3.2 °F 46% 30.30 in 10.0 mi Calm Calm - N/A   Clear
9:20 PM 21.2 °F - 5.0 °F 50% 30.30 in 10.0 mi Calm Calm - N/A   Clear
9:40 PM 17.6 °F - 8.6 °F 68% 30.31 in 10.0 mi Calm Calm - N/A   Clear
10:00 PM 17.6 °F - 6.8 °F 63% 30.31 in 10.0 mi Calm Calm - N/A   Clear
10:20 PM 17.6 °F - 6.8 °F 63% 30.31 in 10.0 mi Calm Calm - N/A   Clear
10:40 PM 17.6 °F 12.3 °F 6.8 °F 63% 30.30 in 10.0 mi WSW 3.5 mph - N/A   Clear
11:00 PM 15.8 °F - 8.6 °F 73% 30.30 in 10.0 mi Calm Calm - N/A   Clear
11:20 PM 14.0 °F - 8.6 °F 79% 30.30 in 10.0 mi Calm Calm - N/A   Clear
11:40 PM 14.0 °F - 8.6 °F 79% 30.30 in 10.0 mi Calm Calm - N/A   Clear